Regional Weather Roundup
Issued by NWS

Home | Current Version | Previous Version | Graphics & Text | Print | Product List | Glossary On
Versions: 1 2 3 4 5 6 7 8 9 10 11 12 13 14 15 16 17 18 19 20 21 22 23 24 25 26 27 28 29 30 31 32 33 34 35 36 37 38 39 40 41 42 43 44 45 46 47 48 49 50
000
ASUS45 KSLC 031410
RWRUT

UTAH REGIONAL WEATHER ROUNDUP
NATIONAL WEATHER SERVICE SALT LAKE CITY UT
800 AM MDT WED JUN 03 2015

UTZ001>011-023>025-031500-

NORTHERN UTAH

CITY           SKY/WX    TMP DP  RH WIND       PRES   REMARKS
BRIGHAM CITY   MOSUNNY   60  48  65 W5        29.92S
HILL AFB       MOSUNNY   58  41  53 SE15G30   29.93S
LOGAN          SUNNY     56  49  77 CALM      29.97F
OGDEN          MOSUNNY   61  43  51 S8        29.91F
PROVO AIRPORT  SUNNY     59  41  51 E5        29.94R
SALT LAKE CITY PTSUNNY   65  50  58 N3        29.91S
VERNAL         SUNNY     64  40  41 NW6       29.98S
WENDOVER       PTSUNNY   63  41  45 N9        29.93S
HEBER CITY     SUNNY     48  39  71 CALM      30.02S
WEST JORDAN    SUNNY     63  48  59 CALM      29.94S

$$

UTZ012>022-026-027-031500-

SOUTHERN/CENTRAL UTAH

CITY           SKY/WX    TMP DP  RH WIND       PRES   REMARKS
BLANDING       SUNNY     62  25  25 SE6       30.13R
BRYCE CANYON   SUNNY     48  27  44 NW5       30.12S
CEDAR CITY     SUNNY     60  27  28 CALM      29.99R
DELTA          MOSUNNY   64  19  18 S6        29.93S
HANKSVILLE     MOSUNNY   63  25  23 CALM      29.94R
MILFORD        MOSUNNY   54  30  40 S3        29.95R
MOAB/CYNLANDS  SUNNY     68  25  19 E6        29.91R
PRICE          MOSUNNY   62  27  26 CALM      29.97S
ST GEORGE      SUNNY     66  19  16 CALM      29.88S
KANAB          SUNNY     54  32  43 N7        30.02F

$$

REGIONAL REPORTS     COLORADO/ARIZONA

CITY           SKY/WX    TMP DP  RH WIND       PRES   REMARKS
CRAIG, CO      SUNNY     51  40  65 W5        30.05F
GRAND JUNCTION SUNNY     62  32  32 SE3       29.95R
RIFLE          SUNNY     55  38  52 CALM      30.02S
MONTROSE       SUNNY     63  34  33 SE6       30.04S
CORTEZ         SUNNY     55  34  45 CALM      30.09S
PAGE, AZ       SUNNY     70  20  15 S6        29.95R
GRAND CANYON   SUNNY     51  26  37 CALM      30.10S
KINGMAN        SUNNY     67  14  13 S3        29.89R
FLAGSTAFF      SUNNY     51  29  42 CALM      30.13S

$$

REGIONAL REPORTS    NEVADA/IDAHO/WYOMING

CITY           SKY/WX    TMP DP  RH WIND       PRES   REMARKS
LAS VEGAS, NV  SUNNY     74  40  29 S15       29.74S
ELY            MOSUNNY   48  40  73 S8        30.02S
ELKO           CLOUDY    47  37  68 CALM      29.99R
POCATELLO, ID  SUNNY     53  47  79 SW12      30.01S
BURLEY         PTSUNNY   53  44  71 W6        29.99S
EVANSTON, WY   MOSUNNY   50  39  66 N8        30.07S
ROCK SPRINGS   MOSUNNY   55  38  52 E6        30.09R
KEMMERER       MOSUNNY   50  39  66 N7        30.10S

$$


USA.gov is the U.S. government's official web portal to all federal, state and local government web resources and services.